Location: Ridgway Nature & Science Center
(38.1460°N, 107.7553°W)
Time: 14:00:42
(UTC-07:00)

Hubble Space Telescope - Pass Details

Date: 30 October 2021
Orbit: 534 x 538 km, 28.5° (Epoch: 06 December)

Event Time Altitude Azimuth Distance (km) Brightness Sun altitude
Rises 20:16:33 0° 240° (WSW) 2,656 5.2 -24.7°
Reaches altitude 10° 20:19:14 10° 223° (SW) 1,766 3.9 -25.2°
Enters shadow 20:21:11 18° 196° (SSW) 1,331 2.9 -25.6°
